Date,TemperatureHighF,TemperatureAvgF,TemperatureLowF,DewpointHighF,DewpointAvgF,DewpointLowF,HumidityHigh,HumidityAvg,HumidityLow,PressureMaxIn,PressureMinIn,WindSpeedMaxMPH,WindSpeedAvgMPH,GustSpeedMaxMPH,PrecipitationSumIn
2013-9-1,86.4,73.5,65.8,74.9,70.2,65.6,99,91,59,29.76,29.68,3,1,8,0.37
2013-9-2,81.5,72.7,66.2,75.3,69.0,59.3,100,89,71,29.78,29.67,5,2,14,0.02
2013-9-3,66.9,64.5,60.4,63.2,59.9,57.4,100,85,74,29.95,29.77,3,1,11,0.02
2013-9-4,79.0,68.8,60.1,64.8,60.7,58.4,97,77,52,29.99,29.93,7,3,20,0.00
2013-9-5,75.0,66.3,53.6,64.6,53.2,47.6,90,64,40,30.16,29.93,3,1,13,0.00
2013-9-6,77.2,61.0,47.8,53.3,47.8,42.9,86,65,38,30.22,30.04,3,1,10,0.00
2013-9-7,81.0,66.2,56.3,68.8,56.9,45.9,100,74,41,30.04,29.83,6,2,16,0.01
2013-9-8,74.1,67.4,55.6,69.5,59.6,49.7,100,78,47,30.03,29.82,5,2,19,0.01
2013-9-9,80.4,65.6,54.0,71.5,59.7,48.6,100,82,61,30.03,29.91,5,3,17,0.12
2013-9-10,99.0,84.7,71.6,77.5,73.4,69.4,97,71,43,29.97,29.88,8,4,24,0.00
2013-9-11,94.6,85.0,69.6,77.1,74.0,69.0,99,71,47,29.99,29.84,6,4,19,0.38
2013-9-12,78.3,70.7,64.4,72.4,66.6,54.2,100,88,60,29.90,29.72,6,2,21,0.06
2013-9-13,64.2,58.6,53.2,58.4,51.5,44.8,90,78,66,29.99,29.75,4,2,20,0.00
2013-9-14,69.3,57.7,48.0,47.6,44.2,40.2,86,62,36,30.09,29.97,3,1,12,0.00
2013-9-15,72.3,59.2,47.8,59.6,49.7,42.2,100,72,47,30.10,29.92,5,2,14,0.17
2013-9-16,66.2,55.7,45.7,61.4,54.6,45.4,100,96,79,30.20,29.95,5,1,15,0.02
2013-9-17,72.0,54.8,38.5,53.8,46.8,38.2,100,78,45,30.30,30.11,3,1,11,0.00
2013-9-18,81.5,61.3,49.1,57.8,49.0,40.7,94,65,42,30.11,29.95,6,2,17,0.00
2013-9-19,82.0,67.4,56.1,68.0,60.5,52.0,100,80,54,29.97,29.85,6,2,15,0.00
2013-9-20,82.0,71.8,61.5,72.6,67.9,61.3,100,88,70,29.87,29.60,7,4,22,0.00
2013-9-21,73.0,63.8,57.6,71.6,62.7,53.0,100,96,81,29.65,29.50,4,1,21,1.97
2013-9-22,62.1,56.7,53.2,53.3,48.1,43.3,87,73,60,29.90,29.65,3,2,17,0.00
2013-9-23,68.7,54.2,43.3,48.9,45.8,42.6,100,75,43,30.02,29.90,2,1,10,0.00
2013-9-24,71.1,54.9,42.8,55.7,48.6,42.5,100,82,50,29.93,29.80,3,1,10,0.00
2013-9-25,76.3,58.1,44.1,56.5,50.7,43.8,99,80,45,29.91,29.83,3,0,10,0.00
2013-9-26,75.0,58.8,43.5,56.0,50.6,43.3,100,79,43,30.03,29.87,4,1,14,0.00
2013-9-27,73.4,60.7,47.7,59.1,54.5,47.4,100,82,58,30.14,30.02,5,1,14,0.00
2013-9-28,83.5,65.0,48.7,58.9,54.7,48.5,99,72,38,30.15,29.79,6,2,16,0.00
2013-9-29,77.9,65.1,55.0,63.0,56.4,50.3,87,74,55,29.90,29.76,7,4,20,0.00
2013-9-30,69.4,64.4,59.9,65.9,61.2,58.0,100,89,80,29.94,29.74,4,2,12,0.00